Reflectivity
-20 -20 -20 -20 -20 -20 -20 -20 -20 -20 -20 -20 -20 -20 -20 -20 -20 -20 -20 -20 -20 -20 -20 -20 -20 -20 -20 -20 -20 -20 -20 -20 -20 -20 -20 -3 -20 -11 -19 -9 -17 -8 -1
-20 -20 -20 -20 -20 -20 -20 -20 -20 -20 -20 -20 -20 -20 -20 -20 -20 -20 -20 -20 -20 -20 -20 -20 -20 -20 -20 -20 -20 -20 -20 -20 -20 -20 -20 -20 -19 -17 5 -20 -20 -20 -0
-20 -20 -20 -20 -20 -20 -20 -20 -20 -20 -20 -20 -20 -20 -20 -20 -20 -20 -20 -20 -20 -20 -20 -20 -20 -9 -20 -20 -20 -20 -20 -20 26 -20 -20 -20 -20 -20 -20 -19 -14 -18 -20
-20 -20 -20 -20 -20 -20 -20 -20 -20 -20 -20 -20 -20 -20 -20 -20 -20 -20 -20 -20 -20 -20 -20 -20 -20 -20 -20 -20 -20 -20 -20 -20 -20 -12 -20 -14 -20 -20 -1 -20 -20 -20 -20
-20 -20 -20 -20 -20 -10 -20 -20 -20 -20 -20 -20 -20 -11 -16 -20 -20 -20 -20 -20 -20 -20 -20 -20 -20 -20 -20 -20 -20 -20 -20 -20 -20 -20 -20 -20 -20 -20 -20 -20 -20 -20 -20
-20 -20 -20 -20 -9 -20 -20 -20 -20 -20 -20 -20 -20 -20 -20 -20 -20 -20 -20 -20 -20 -20 -20 -20 -20 -20 -20 -20 -20 -20 -20 -20 -20 -20 -20 -20 -20 -20 -20 -15 -7 -17 37
-20 -20 -20 -20 -20 -20 -5 0 -20 -20 -20 -20 -20 -20 -20 -20 -20 -20 -20 -20 -20 -20 -20 -20 -20 -20 -20 -20 -20 -20 -20 -20 -20 -20 -20 -20 -20 -14 8 3 16 17 3
-20 -20 -20 -20 -20 -20 -20 -20 -20 -20 -20 -20 -20 -20 -20 -20 -20 -20 -20 -20 -20 -20 -20 -20 -20 -20 -20 -20 -20 -20 -20 -20 -20 -20 -20 -20 -20 -12 -8 -3 4 -7 35
-20 -20 -20 -20 -20 -20 -20 -20 -20 -20 -20 -20 -20 -20 -20 -20 -20 -20 -20 -20 -20 -20 -20 -20 -20 -20 -20 -20 -20 -20 -20 -20 -20 -20 -20 -20 -20 -20 -20 -20 -18 5 13
-20 -20 -20 -20 -20 -20 -20 -20 -20 -20 -20 -20 -20 -20 -20 -20 -20 -20 -20 -20 -20 -20 -20 -20 -20 -20 -20 -20 -20 -20 -20 -20 -20 -20 -20 -20 -20 -20 -20 -20 -20 -1 -12
-20 -20 -20 -20 -20 -20 -20 -20 -20 -20 -20 -20 -20 -20 -20 -20 -20 -20 -20 -20 -20 -20 -20 -20 -20 -20 -20 -20 -20 -20 -20 -20 -20 -20 -20 -20 -20 -20 -20 -20 -20 -20 -18
-20 -20 -20 -20 -20 -20 -20 -20 -20 -20 -20 -20 -20 -20 -20 -20 -20 -20 -20 -20 -20 -20 -20 -20 -20 -20 -20 -20 -20 -20 -20 -20 -20 -20 -20 -20 -20 -20 -20 -20 -20 -20 -20
-20 -20 -20 -20 -20 -20 -20 -20 -20 -20 -20 -20 -20 -20 -20 -20 -20 -20 -20 -20 -20 -20 -20 -20 -20 -20 -20 -20 -20 -20 -20 -20 -20 -20 -20 -20 -20 -20 -20 -20 -20 -20 -20
-20 -20 -20 -20 -20 -20 -20 -20 -20 -20 -20 -20 -20 -20 -20 -20 -20 -20 -20 -20 -20 -20 -20 -20 -20 -20 -20 -20 -20 -20 -20 -20 -20 -20 -20 -20 -20 -20 -20 -20 -20 -20 -20
-20 -20 -20 -20 -20 -20 -20 -20 -20 -20 -20 -20 -20 -20 -20 -20 -20 -20 -20 -20 -20 -20 -20 -20 -20 -20 -20 -20 -20 -20 -20 -20 -20 -20 -20 -20 -20 -20 -20 -20 -20 -20 -20
-20 -20 -20 -13 13 8 5 -20 -20 -20 -20 -20 -20 -20 -20 -20 -20 -20 -20 -20 -20 -20 -20 -20 -20 -20 -20 -20 -20 -20 -20 -20 -20 -20 -20 -20 -20 -20 -20 -20 -20 -20 -20
2 -20 -17 35 33 21 16 -20 -20 -20 -20 -20 -20 -20 -20 -20 -20 -20 -20 -20 -20 -20 -20 -20 -20 -20 -20 -20 -20 -20 -20 -20 -20 -20 -20 -20 -20 -20 -20 -20 -20 -20 -20
-20 -20 -20 -20 -10 35 4 -20 -20 -20 -20 -20 -20 -20 -20 -20 -20 -20 -20 -20 -20 -20 -20 -20 -20 -20 -20 -20 -20 -20 -20 -20 -20 -20 -20 -20 -20 -20 -20 -20 -20 -20 -20
-20 -20 -20 -20 -20 -20 -20 -20 -20 -20 -20 -20 -20 -20 -20 -20 -20 -20 -20 -20 -20 -20 -20 -20 -20 -20 -20 -20 -20 -20 -20 -20 -20 -20 -20 -20 -20 -20 -20 -20 -20 -20 -20
-20 -20 -20 -20 -20 -20 -20 -20 -20 -20 -20 -20 -20 -20 -20 -20 -20 -20 -20 -20 -20 -20 -20 -20 -20 -20 -20 -20 -20 -20 -20 -20 -20 -20 -20 -8 -20 -14 -19 -20 -20 -20 -20
-20 -20 -20 -20 -20 -20 -20 -20 8 -20 -20 -20 -20 -20 -20 -20 -20 -20 -20 -20 -20 -20 -20 -20 -20 -20 -20 -20 -20 -20 -20 -20 -20 -20 -20 -20 -20 -20 -20 -20 -17 9 -20
-20 -20 -7 11 -20 -1 4 -20 -20 -20 -20 -20 -20 -20 -20 -20 -20 -20 -20 -20 -20 -20 -20 -20 -20 -20 -20 -20 -20 -20 -20 -20 -20 -20 -20 -20 -20 -20 -20 -20 -20 -20 -7
-20 -20 -20 -20 -20 -7 -5 -20 -20 -20 -20 -20 -20 -20 -20 -20 -20 -20 -20 -20 -20 -20 -20 -20 -20 -20 -20 -20 -20 -20 -20 -20 -20 -20 -20 -20 -20 -20 -20 -20 -20 -20 -9
-20 -20 -20 -20 -20 -20 -20 -20 -20 -20 -20 -20 -20 -20 -20 -20 -20 -20 -20 -20 -20 -20 -20 -20 -20 -20 -20 -20 -20 -20 -20 -20 -20 -20 -20 -20 -20 -20 -20 -20 -20 -7 1
-20 -20 -20 -20 -20 -20 -20 -20 -20 -20 -20 -20 -20 -20 -20 -20 -20 -20 -20 -20 -20 -20 -20 -20 -20 -20 -20 -20 -20 -19 -20 -20 -20 -20 -20 -20 -20 -20 -20 -20 -20 -20 4
-20 -20 -20 -20 -20 -20 -20 -20 -20 -20 -20 -20 -20 -20 -20 -20 -20 -20 -20 -19 -20 -20 -20 -20 -20 -20 -20 -20 -20 -14 -20 8 -19 -20 -20 -20 -20 -20 -20 -20 -20 -20 -20
Wind_Speed
5 6 13 13 12 12 12 12 13 14 16 16 15 14 14 14 14 14 13 13 12 13 14 13 14 14 13 9 11 7 7 7 6 4 4 4 5 6 9 6 7 7 7
11 7 13 13 13 13 13 14 14 14 15 14 13 13 13 14 14 14 13 12 13 13 13 13 13 14 13 12 10 8 8 8 8 7 8 8 1 4 6 7 7 5 3
12 10 12 13 14 14 15 15 15 15 15 13 13 13 14 14 14 13 12 12 12 13 13 12 13 13 13 12 10 9 8 8 8 6 6 4 5 5 7 6 5 3 4
13 10 10 13 14 14 15 15 15 15 14 13 14 14 14 14 13 13 12 11 11 12 11 11 13 13 12 11 10 9 9 9 9 9 4 3 3 9 8 5 1 2 4
13 11 10 12 12 14 14 15 15 15 14 13 14 14 13 13 12 13 11 10 11 11 10 11 11 10 10 9 9 9 9 9 9 7 5 4 5 3 3 7 6 6 1
11 10 12 13 13 15 16 15 15 14 13 13 13 12 12 12 13 11 10 10 10 9 8 9 9 8 7 7 8 9 10 9 7 5 5 6 4 2 7 1 3 5 3
11 10 11 13 14 15 16 15 14 13 13 13 13 11 12 11 11 10 9 8 8 8 8 8 9 9 8 6 6 6 6 7 5 6 6 6 6 10 5 5 8 6 8
13 10 10 13 15 15 15 15 14 12 12 12 11 10 11 9 9 10 7 6 5 4 4 5 6 7 8 8 7 7 8 8 5 5 3 6 9 6 10 12 11 11 9
13 11 7 9 12 13 13 12 13 13 12 11 9 9 8 7 7 8 7 6 4 2 1 3 5 8 9 10 11 10 10 9 5 3 4 4 9 8 9 14 18 12 9
11 11 9 9 8 7 8 12 12 11 11 10 9 10 9 9 8 8 8 6 6 5 2 3 5 8 8 8 10 11 12 11 6 2 1 2 7 6 3 7 9 9 10
10 11 9 9 8 7 7 8 11 12 11 10 9 11 7 4 6 7 8 8 7 7 6 7 8 8 8 8 10 12 10 3 5 1 2 6 4 2 3 3 3 7 7
6 8 8 10 9 8 7 7 5 6 5 5 5 5 4 5 6 6 7 9 8 7 8 9 10 9 7 4 4 6 3 5 4 1 3 7 6 5 7 8 8 8 8
9 6 8 8 7 7 6 4 3 3 3 4 7 5 4 2 1 2 2 3 3 6 4 5 5 4 5 4 4 3 4 4 3 2 4 10 8 7 8 10 10 11 11
8 11 8 8 7 5 4 4 4 4 4 3 4 5 3 2 2 2 2 4 4 3 5 5 4 5 6 7 6 5 5 4 3 2 3 10 8 8 8 10 12 13 12
9 10 11 8 5 4 4 3 4 4 4 5 4 4 4 2 1 1 1 1 2 2 2 2 4 4 4 5 5 6 6 6 6 3 3 11 11 10 11 12 13 14 14
9 14 9 6 6 6 2 5 3 4 2 3 4 4 5 3 2 2 1 3 4 3 3 3 4 5 5 5 7 7 8 7 7 7 4 5 14 12 12 13 14 15 16
6 14 18 13 6 5 2 4 4 3 4 2 3 5 5 2 2 2 4 4 4 4 5 5 5 4 4 5 7 7 7 9 8 9 6 5 7 14 14 14 14 15 16
13 16 15 13 4 1 5 3 3 5 3 3 4 4 6 6 7 5 4 4 5 4 4 4 5 5 5 4 4 5 5 6 8 8 8 5 6 7 12 16 17 16 16
11 11 11 10 8 4 6 4 4 5 4 4 4 4 5 6 6 5 5 5 6 4 5 4 4 2 3 5 6 6 6 5 7 8 11 11 9 9 8 16 20 18 17
11 12 12 7 7 9 5 5 6 5 4 4 4 3 7 5 6 5 4 5 4 4 5 5 5 5 3 6 9 10 6 6 5 4 7 7 10 12 12 12 11 11 16
15 13 9 10 4 5 5 5 3 3 2 4 3 5 5 3 5 5 3 4 3 3 3 3 2 5 6 5 5 10 5 6 7 6 5 5 5 8 8 9 6 7 9
13 12 11 9 11 7 4 2 3 2 2 2 1 4 7 7 6 5 5 4 5 4 6 6 6 4 2 4 3 5 5 7 5 7 7 7 10 11 12 6 8 7 5
11 10 10 9 8 7 4 3 4 4 4 4 5 5 5 7 7 7 7 6 6 5 4 5 4 5 4 3 5 0 4 4 5 4 8 9 10 8 9 11 12 8 8
7 8 8 7 6 7 8 7 7 3 3 2 2 3 6 7 8 7 7 7 5 3 6 4 6 4 4 4 2 4 2 1 2 5 5 9 10 9 6 5 7 9 9
7 5 5 5 5 5 5 5 4 1 1 2 4 5 6 6 7 6 6 5 6 4 5 6 6 6 3 2 3 3 2 1 1 3 9 5 7 5 4 5 5 4 2
3 3 3 3 1 3 4 4 5 5 2 3 3 4 3 3 4 6 8 7 6 6 6 5 4 5 3 3 1 2 2 2 2 2 4 11 9 6 9 7 5 5 3
Wind_Direction
101 128 108 102 99 89 83 85 91 91 94 95 95 94 85 77 67 62 56 49 42 36 32 32 31 26 16 46 41 33 15 13 353 36 56 76 73 84 79 66 104 34 43
126 125 109 103 97 90 85 87 97 102 106 107 101 91 82 74 66 59 54 48 42 36 32 31 29 34 33 40 39 24 10 17 23 6 350 359 25 31 71 97 107 107 90
118 121 105 99 97 91 91 95 101 102 104 103 93 84 77 71 66 62 56 52 46 44 36 30 26 27 26 25 20 9 5 4 4 13 11 332 322 25 36 34 24 83 109
120 111 111 105 102 101 100 100 101 100 97 94 87 80 75 71 71 68 68 64 62 55 45 42 38 32 26 18 13 5 5 4 1 349 339 8 96 26 355 15 319 256 144
98 107 117 113 108 105 104 95 91 88 88 91 93 85 84 83 80 78 74 68 61 57 45 41 40 36 31 23 16 16 14 1 350 336 311 107 134 184 347 331 324 289 23
104 105 101 105 109 109 106 104 102 101 98 91 92 95 95 89 85 85 77 67 60 52 43 34 29 24 17 15 11 11 7 360 341 300 113 108 89 20 289 292 21 265 187
115 108 108 110 107 106 104 103 102 103 103 103 98 102 100 97 95 90 83 73 59 45 30 23 8 357 348 342 336 343 341 340 341 322 177 158 215 220 186 237 269 255 234
124 119 112 111 105 105 111 119 122 118 111 104 107 112 107 111 110 106 104 99 87 62 21 4 348 332 321 319 316 315 314 314 328 330 207 180 222 244 197 227 239 244 241
131 129 131 118 121 121 121 118 116 117 118 120 130 121 127 125 131 138 154 149 147 147 232 333 328 308 311 317 313 311 302 304 309 316 191 191 214 212 217 229 237 234 255
140 143 142 137 133 132 134 131 126 129 134 146 145 148 168 152 160 173 172 176 191 205 237 274 281 285 298 303 306 301 304 319 318 328 187 222 167 177 215 253 227 234 243
142 149 152 146 148 140 135 146 144 150 157 168 170 173 178 173 186 196 196 197 214 216 224 239 254 269 291 292 293 281 289 290 295 317 178 189 196 181 240 283 266 238 245
146 133 145 137 150 155 151 149 156 168 168 186 200 181 195 203 203 193 209 207 234 237 233 243 251 259 273 273 283 315 281 278 279 211 208 222 193 219 249 241 242 248 248
167 144 134 132 145 152 151 155 168 178 188 187 192 173 166 151 255 200 215 230 255 251 245 248 255 249 245 242 265 274 289 300 302 328 215 217 209 222 242 250 255 258 253
161 143 133 149 143 130 139 158 158 164 159 175 175 161 134 100 112 63 156 202 215 233 231 240 244 257 252 255 244 254 259 276 281 248 219 222 230 246 254 249 255 258 256
145 148 158 140 135 144 113 133 127 126 135 173 147 145 128 104 171 187 251 308 294 305 236 224 237 260 251 257 253 245 244 243 252 249 215 215 218 225 239 257 265 267 265
152 165 125 83 155 145 131 120 113 110 123 78 153 159 153 166 191 180 345 341 332 335 293 278 268 267 262 257 251 244 237 235 233 234 221 219 214 214 228 240 250 256 260
124 112 100 66 284 42 165 130 124 134 90 120 185 181 182 147 174 47 23 356 325 325 318 317 315 301 274 260 252 252 241 239 233 231 222 208 216 214 211 223 241 247 250
139 141 144 144 165 338 240 175 128 116 94 26 61 62 60 44 51 44 24 352 329 323 308 301 295 298 299 298 277 267 254 264 258 242 239 216 205 210 215 217 222 230 237
162 125 122 131 177 196 185 137 132 117 72 44 81 64 44 48 44 36 13 335 339 341 332 325 325 322 307 311 308 305 286 265 249 246 235 234 211 209 207 217 216 219 219
64 118 118 130 176 196 159 81 49 56 66 64 62 58 41 58 50 42 349 319 331 5 351 348 337 335 315 318 327 311 293 290 283 260 244 244 244 224 212 208 209 216 216
74 72 75 74 33 88 51 64 49 82 59 58 60 75 88 63 28 9 307 317 8 39 330 326 317 346 332 338 347 331 313 295 314 304 300 293 282 265 242 226 208 204 209
73 78 76 62 53 46 55 57 91 141 137 175 18 29 27 8 328 340 8 6 15 14 0 350 356 337 309 341 300 296 320 314 328 333 355 16 22 21 359 289 197 192 194
54 64 67 64 66 57 54 49 28 18 10 18 10 3 331 347 16 29 28 24 10 18 358 341 349 350 310 320 10 141 342 312 330 355 345 5 18 23 14 19 3 325 259
43 57 72 75 68 60 46 50 51 49 19 321 290 325 3 14 17 26 26 22 20 4 12 344 352 349 354 356 342 54 81 156 1 320 357 322 349 354 5 6 6 359 352
50 53 61 62 76 93 95 88 73 19 268 297 3 48 19 5 13 11 10 3 13 16 1 24 21 30 36 58 25 350 337 288 128 288 315 311 312 333 319 342 309 281 355
133 85 74 58 278 182 165 174 195 202 272 61 58 44 6 351 0 357 1 357 357 6 8 19 25 50 51 53 20 80 63 320 319 322 310 306 305 308 319 308 304 289 281